Location: Ackerson Creek
(37.8210°N, 119.8757°W)
Time: 15:37:14
(UTC+00:00)

USA 308 - Pass Details

Date: 13 April 2024
Orbit: 493 x 493 km, 54.0° (Epoch: 14 March)

Event Time Altitude Azimuth Distance (km) Brightness Sun altitude
Exits shadow 12:32:13 15° 226° (SW) 1,363 4.3 -11.0°
Maximum altitude 12:35:18 89° 313° (NW) 493 2.5 -10.5°
Drops below altitude 10° 12:39:14 10° 46° (NE) 1,694 6.5 -9.7°
Sets 12:41:26 0° 47° (NE) 2,565 7.6 -9.3°
